Preview of NWS' New Version of Forecast
This preview is not operational and should not be used for support decisions.

Regional Weather Roundup (RWR)

Issued by National Weather Service (NWS)

                            
000
ASUS43 KDTX 170210
RWRMI 
MICHIGAN HOURLY REGIONAL WEATHER ROUNDUP
NATIONAL WEATHER SERVICE DETROIT/PONTIAC MI
900 PM EST SAT FEB 16 2019

NOTE: "FAIR" INDICATES FEW OR NO CLOUDS BELOW 12,000 FEET WITH NO
SIGNIFICANT WEATHER AND/OR OBSTRUCTION TO VISIBILITY.

MIZ047>049-052>055-059>063-066>070-074>076-081>083-170300-
SOUTHEAST LOWER MICHIGAN
  
CITY           SKY/WX    TMP DP  RH WIND       PRES   REMARKS
ADRIAN         CLOUDY    24  16  71 E8        30.11R WCI  15          
ALMA           FAIR      14  11  88 CALM      30.13R                  
ANN ARBOR      CLOUDY    25  16  68 NE6       30.10R WCI  18          
BAD AXE        FAIR      13  10  88 CALM      30.13R                  
CARO           FAIR      11  10  95 CALM      30.14R                  
DETROIT CITY   CLOUDY    25  15  66 NE7       30.12R WCI  17          
DETROIT        FLURRIES  26  15  63 E7        30.12R WCI  18          
FLINT          FAIR      18  13  80 CALM      30.13R                  
GROSSE ILE     CLOUDY    26  17  70 NE3       30.11R                  
HILLSDALE      CLOUDY    24  16  72 E8        30.06R WCI  15          
HOWELL         CLOUDY    24  15  70 E3        30.10R                  

CITY           SKY/WX    TMP DP  RH WIND       PRES   REMARKS
JACKSON        CLOUDY    24  16  71 NE8       30.08R WCI  15          
LAMBERTVILLE   CLOUDY    26  20  78 E5        30.11S WCI  20          
LANSING        CLOUDY    22  15  75 E6        30.11S WCI  14          
LAPEER         CLOUDY    24  14  67 CALM      30.12R                  
MASON          CLOUDY    24  17  75 E7        30.10S WCI  16          
MONROE         CLOUDY    25  19  75 NE6       30.11S WCI  18          
MT. CLEMENS    CLOUDY    25  18  73 NE8       30.11R WCI  16          
PONTIAC        CLOUDY    22  14  71 NE6       30.10R WCI  14          
PORT HOPE        N/A     23  16  74 NE9       30.11S WCI  13          
PORT HURON     CLOUDY    25  16  68 NE3       30.13R                  
TRI CITIES     FAIR      18  13  80 S3        30.15R                  
MIDLAND        FAIR      15  12  85 CALM      30.14R                  
TROY           CLOUDY    25  14  61 N3        30.13S                  
SAGINAW HB     FAIR      16  10  79 CALM      30.14R                  
$$
MIZ043>046-050>051-056>058-064>065-071>073-077>080-170300-
SOUTHWEST LOWER MICHIGAN
  
CITY           SKY/WX    TMP DP  RH WIND       PRES   REMARKS
BATTLE CREEK   CLOUDY    24  15  68 SE7       30.10R WCI  16          
BENTON HARBOR  CLOUDY    25  16  68 E7        30.09S WCI  17          
BIG RAPIDS     FAIR      19  12  74 CALM      30.08F                  
COLDWATER      CLOUDY    25  18  73 SE7       30.10R WCI  18          
FREMONT        FAIR      21  12  69 CALM      30.10S                  
HOLLAND        FAIR      19  13  77 E5        30.10F WCI  12          
GRAND RAPIDS   FAIR      20  12  71 E5        30.10S WCI  13          
IONIA          FAIR      17  12  81 E3        30.11R                  
KALAMAZOO      CLOUDY    25  16  68 SE6       30.10R WCI  18          
LUDINGTON      FAIR      21  13  71 NE3       30.11S                  
MARSHALL       CLOUDY    24  17  73 CALM      30.09R                  
MOUNT PLEASANT FAIR      17  10  75 CALM      30.12R                  
MUSKEGON       FAIR      21  12  68 E5        30.10F WCI  15          
SOUTH HAVEN    CLOUDY    26  16  66 E7        30.10S WCI  18          
$$
MIZ016>042-170300-
NORTHERN LOWER MICHIGAN
  
CITY           SKY/WX    TMP DP  RH WIND       PRES   REMARKS
ALPENA         FAIR       6   2  83 CALM      30.14R                  
BEAVER ISLAND  FAIR       7   5  90 CALM      30.17R                  
BELLAIRE       FAIR       7   4  87 CALM      30.17S                  
CADILLAC       FAIR      10   8  89 CALM      30.08S                  
CHARLEVOIX     MOCLDY     9   6  88 CALM      30.19R                  
FRANKFORT      FAIR      19  12  72 CALM      30.14S                  
GAYLORD        FAIR       6   2  83 CALM      30.10R                  
GRAYLING       FAIR       0  -2  91 CALM      30.11R                  
HARBOR SPRINGS FAIR      14  10  83 N5        30.16R WCI   7          
HOUGHTON LAKE  FAIR      10   6  84 NE3       30.11R                  
MANISTEE       FAIR      17  11  77 NE8       30.12F WCI   7          
OSCODA         FAIR       8   5  84 NW6       30.14R WCI  -2          
PELLSTON       MOCLDY     8   5  87 N3        30.16R                  
ROGERS CITY    CLOUDY    19  14  81 N7        30.15R WCI  10          
TRAVERSE CITY  FAIR      17  10  74 CALM      30.14S                  
$$
MIZ007>008-015-170300-
EASTERN UPPER MICHIGAN
  
CITY           SKY/WX    TMP DP  RH WIND       PRES   REMARKS
KINROSS        FAIR       7   4  87 NW5       30.14R WCI  -2          
MACKINAC ISLAN FAIR      13   9  83 N5        30.15S WCI   5          
NEWBERRY       LGT SNOW  16  14  92 MISG      30.14S                  
S. S. MARIE    FAIR      10   5  80 NW5       30.14R WCI   2          
MUNISING         N/A     18  10  71 CALM      30.16S                  
$$
MIZ004>006-011>014-085-170300-
CENTRAL UPPER MICHIGAN
  
CITY           SKY/WX    TMP DP  RH WIND       PRES   REMARKS
MANISTIQUE     CLOUDY    19  11  72 CALM      30.16R                  
ESCANABA       FAIR      16  10  77 NE6       30.16F WCI   7          
MENOMINEE      FAIR       6   2  83 CALM      30.16S FOG              
SAWYER-GWINN   CLEAR      9   5  85 CALM      30.12S                  
$$
MIZ001>003-009>011-084-170300-
WESTERN UPPER MICHIGAN
  
CITY           SKY/WX    TMP DP  RH WIND       PRES   REMARKS
IRON MOUNTAIN  FAIR      16   9  74 E3        30.11R                  
HOUGHTON       FAIR       7   1  76 N5        30.13R WCI  -2          
COPPER HARBOR    N/A      6   2  83 W6        30.18R WCI  -4          
IRONWOOD       FAIR      10   8  92 E3        30.11S                  
$$

ABBREVIATIONS USED IN REMARKS
   TC - TEMPERATURE IN CELSIUS
  WCI - WIND CHILL INDEX
   HX - HEAT INDEX
  VSB - VISIBILITY